| time (UTC) | temp F | wind direction | speed knots | gust knots | rain 1hr in | rain 24hr in | rain mn in | humidity % | barometer mb |
| 20260906214512 | 61 | 217 | 1.7 | 3.5 | 0.00 | 0.02 | 0.02 | 93 | 1001.8 |
| 20260906213009 | 60 | 290 | 0.9 | 6.1 | 0.00 | 0.02 | 0.02 | 94 | 1001.9 |
| 20260906211508 | 61 | 203 | 1.7 | 5.2 | 0.00 | 0.02 | 0.02 | 94 | 1001.8 |
| 20260906210007 | 61 | 74 | 3.5 | 9.6 | 0.00 | 0.02 | 0.02 | 94 | 1001.8 |
| 20260906204507 | 61 | 58 | 2.6 | 8.7 | 0.00 | 0.02 | 0.02 | 94 | 1001.9 |
| 20260906203003 | 61 | 100 | 2.6 | 8.7 | 0.00 | 0.02 | 0.02 | 94 | 1002.2 |
| 20260906201503 | 61 | 277 | 3.5 | 7.0 | 0.00 | 0.02 | 0.02 | 94 | 1002.5 |
| 20260906194558 | 61 | 128 | 1.7 | 5.2 | 0.00 | 0.02 | 0.02 | 95 | 1002.8 |
| 20260906193056 | 60 | 82 | 1.7 | 3.5 | 0.00 | 0.02 | 0.02 | 95 | 1002.9 |
| 20260906191555 | 60 | 104 | 1.7 | 5.2 | 0.00 | 0.02 | 0.02 | 94 | 1003.1 |
| 20260906190054 | 60 | 64 | 0.9 | 5.2 | 0.01 | 0.02 | 0.02 | 94 | 1003.1 |
| 20260906184552 | 60 | 65 | 2.6 | 7.0 | 0.01 | 0.02 | 0.02 | 94 | 1003.2 |
| 20260906183051 | 60 | 50 | 3.5 | 6.1 | 0.01 | 0.02 | 0.02 | 94 | 1003.3 |
| 20260906181552 | 60 | 108 | 0.9 | 7.8 | 0.01 | 0.02 | 0.02 | 93 | 1003.5 |
| 20260906174559 | 60 | 80 | 1.7 | 7.8 | 0.00 | 0.01 | 0.01 | 93 | 1003.5 |
| 20260906173049 | 60 | 29 | 2.6 | 7.8 | 0.00 | 0.01 | 0.01 | 93 | 1003.5 |
| 20260906171545 | 60 | 8 | 0.9 | 7.0 | 0.00 | 0.01 | 0.01 | 93 | 1003.7 |
| 20260906170045 | 60 | 70 | 1.7 | 6.1 | 0.00 | 0.01 | 0.01 | 94 | 1003.7 |
| 20260906164543 | 60 | 103 | 0.9 | 4.3 | 0.00 | 0.01 | 0.01 | 94 | 1003.9 |
| 20260906163039 | 60 | 110 | 0.9 | 3.5 | 0.00 | 0.01 | 0.01 | 94 | 1004.2 |
| 20260906161544 | 60 | 93 | 0.9 | 4.3 | 0.00 | 0.01 | 0.01 | 94 | 1004.4 |
| 20260906160036 | 60 | 12 | 1.7 | 4.3 | 0.00 | 0.01 | 0.01 | 94 | 1004.5 |
| 20260906154543 | 60 | 67 | 1.7 | 5.2 | 0.00 | 0.01 | 0.01 | 94 | 1004.7 |
| 20260906153035 | 60 | 70 | 2.6 | 5.2 | 0.00 | 0.01 | 0.01 | 94 | 1004.8 |
| 20260906151530 | 60 | 120 | 0.0 | 2.6 | 0.00 | 0.01 | 0.01 | 94 | 1005.2 |
| 20260906150030 | 60 | 6 | 0.9 | 4.3 | 0.01 | 0.01 | 0.01 | 94 | 1005.6 |
| 20260906144526 | 60 | 103 | 1.7 | 5.2 | 0.01 | 0.01 | 0.01 | 93 | 1005.7 |
| 20260906143025 | 60 | 94 | 0.9 | 3.5 | 0.01 | 0.01 | 0.01 | 93 | 1005.9 |
| 20260906141521 | 60 | 93 | 0.9 | 3.5 | 0.01 | 0.01 | 0.01 | 92 | 1006.3 |
| 20260906140031 | 60 | 94 | 1.7 | 4.3 | 0.00 | 0.00 | 0.00 | 91 | 1006.5 |
| 20260906134516 | 60 | 100 | 0.0 | 4.3 | 0.00 | 0.00 | 0.00 | 91 | 1006.8 |
| 20260906133022 | 60 | 274 | 0.0 | 2.6 | 0.00 | 0.00 | 0.00 | 91 | 1007.2 |
| 20260906131513 | 60 | 69 | 0.9 | 6.1 | 0.00 | 0.00 | 0.00 | 91 | 1007.3 |
| 20260906130020 | 60 | 80 | 1.7 | 3.5 | 0.00 | 0.00 | 0.00 | 90 | 1007.5 |
| 20260906124509 | 60 | 102 | 0.9 | 4.3 | 0.00 | 0.00 | 0.00 | 90 | 1007.6 |
| 20260906123007 | 60 | 58 | 2.6 | 6.1 | 0.00 | 0.00 | 0.00 | 90 | 1007.8 |
| 20260906121503 | 60 | 63 | 1.7 | 6.1 | 0.00 | 0.00 | 0.00 | 90 | 1007.7 |
| 20260906120135 | 60 | 76 | 2.6 | 6.1 | 0.00 | 0.00 | 0.00 | 89 | 1007.9 |
| 20260906114621 | 59 | 50 | 1.7 | 5.2 | 0.00 | 0.00 | 0.00 | 89 | 1008.0 |
| 20260906113057 | 59 | 97 | 0.0 | 4.3 | 0.00 | 0.00 | 0.00 | 89 | 1008.1 |
| 20260906111603 | 59 | 93 | 1.7 | 4.3 | 0.00 | 0.00 | 0.00 | 89 | 1008.6 |
| 20260906110053 | 59 | 93 | 0.9 | 2.6 | 0.00 | 0.00 | 0.00 | 89 | 1008.7 |
| 20260906104551 | 59 | 79 | 0.9 | 3.5 | 0.00 | 0.00 | 0.00 | 89 | 1008.9 |
| 20260906103051 | 59 | 80 | 0.9 | 2.6 | 0.00 | 0.00 | 0.00 | 89 | 1009.2 |
| 20260906101547 | 59 | 84 | 1.7 | 2.6 | 0.00 | 0.00 | 0.00 | 89 | 1009.3 |
| 20260906100057 | 59 | 102 | 1.7 | 7.8 | 0.00 | 0.00 | 0.00 | 89 | 1009.4 |
| 20260906094549 | 59 | 104 | 1.7 | 4.3 | 0.00 | 0.00 | 0.00 | 89 | 1009.6 |
| 20260906093043 | 59 | 94 | 1.7 | 6.1 | 0.00 | 0.00 | 0.00 | 89 | 1009.7 |
| 20260906091541 | 59 | 119 | 2.6 | 7.0 | 0.00 | 0.00 | 0.00 | 88 | 1009.9 |
| 20260906090039 | 59 | 329 | 3.5 | 7.0 | 0.00 | 0.00 | 0.00 | 87 | 1010.0 |
| 20260906084639 | 59 | 325 | 1.7 | 8.7 | 0.00 | 0.00 | 0.00 | 87 | 1010.2 |
| 20260906083038 | 60 | 37 | 0.9 | 3.5 | 0.00 | 0.00 | 0.00 | 87 | 1010.1 |
| 20260906081535 | 60 | 108 | 0.0 | 5.2 | 0.00 | 0.00 | 0.00 | 85 | 1010.3 |
| 20260906080036 | 59 | 119 | 0.9 | 4.3 | 0.00 | 0.00 | 0.00 | 85 | 1010.3 |
| 20260906074537 | 59 | 86 | 0.9 | 1.7 | 0.00 | 0.00 | 0.00 | 85 | 1010.5 |
| 20260906073031 | 59 | 105 | 0.0 | 1.7 | 0.00 | 0.00 | 0.00 | 85 | 1010.7 |
| 20260906071528 | 59 | 141 | 0.0 | 3.5 | 0.00 | 0.00 | 0.00 | 84 | 1010.9 |
| 20260906070027 | 59 | 113 | 0.9 | 3.5 | 0.00 | 0.00 | 0.00 | 84 | 1011.1 |
| 20260906064527 | 59 | 104 | 0.9 | 3.5 | 0.00 | 0.00 | 0.00 | 84 | 1011.1 |
| 20260906063031 | 60 | 284 | 0.9 | 3.5 | 0.00 | 0.00 | 0.00 | 82 | 1011.2 |
| 20260906061525 | 60 | 110 | 0.9 | 3.5 | 0.00 | 0.00 | 0.00 | 80 | 1011.2 |
| 20260906060024 | 61 | 293 | 0.9 | 3.5 | 0.00 | 0.00 | 0.00 | 79 | 1011.2 |
| 20260906054542 | 62 | 342 | 0.9 | 2.6 | 0.00 | 0.00 | 0.00 | 77 | 1011.3 |
| 20260906053022 | 63 | 152 | 0.9 | 3.5 | 0.00 | 0.00 | 0.00 | 76 | 1011.4 |
| 20260906051529 | 63 | 285 | 1.7 | 4.3 | 0.00 | 0.00 | 0.00 | 74 | 1011.5 |
| 20260906050028 | 63 | 335 | 0.9 | 6.1 | 0.00 | 0.00 | 0.00 | 71 | 1011.8 |
| 20260906044519 | 63 | 317 | 2.6 | 6.1 | 0.00 | 0.00 | 0.00 | 73 | 1011.8 |
| 20260906043018 | 62 | 278 | 1.7 | 6.1 | 0.00 | 0.00 | 0.00 | 72 | 1011.7 |
| 20260906041516 | 62 | 302 | 2.6 | 6.1 | 0.00 | 0.00 | 0.00 | 71 | 1011.8 |
| 20260906040017 | 63 | 292 | 2.6 | 8.7 | 0.00 | 0.00 | 0.00 | 70 | 1012.1 |
| 20260906034517 | 62 | 188 | 2.6 | 8.7 | 0.00 | 0.00 | 0.00 | 70 | 1012.2 |
| 20260906033011 | 63 | 258 | 3.5 | 12.2 | 0.00 | 0.00 | 0.00 | 69 | 1012.4 |
| 20260906031527 | 63 | 278 | 3.5 | 7.0 | 0.00 | 0.00 | 0.00 | 71 | 1012.5 |
| 20260906030011 | 64 | 335 | 1.7 | 4.3 | 0.00 | 0.00 | 0.00 | 71 | 1012.6 |
| 20260906024530 | 64 | 120 | 0.9 | 3.5 | 0.00 | 0.00 | 0.00 | 72 | 1012.7 |
| 20260906023007 | 64 | 101 | 0.9 | 4.3 | 0.00 | 0.00 | 0.00 | 73 | 1012.8 |
| 20260906021501 | 63 | 14 | 0.9 | 3.5 | 0.00 | 0.00 | 0.00 | 76 | 1013.1 |
| 20260906020101 | 61 | 206 | 0.9 | 3.5 | 0.00 | 0.00 | 0.00 | 79 | 1013.2 |
| 20260906014557 | 60 | 335 | 1.7 | 6.1 | 0.00 | 0.00 | 0.00 | 80 | 1013.4 |
| 20260906013103 | 60 | 335 | 3.5 | 7.0 | 0.00 | 0.00 | 0.00 | 77 | 1013.7 |
| 20260906011553 | 61 | 302 | 3.5 | 7.8 | 0.00 | 0.00 | 0.00 | 76 | 1014.0 |
| 20260906010052 | 62 | 177 | 2.6 | 7.0 | 0.00 | 0.00 | 0.00 | 73 | 1014.2 |
| 20260906004549 | 62 | 322 | 1.7 | 6.1 | 0.00 | 0.00 | 0.00 | 73 | 1014.4 |
| 20260906003046 | 62 | 13 | 1.7 | 5.2 | 0.00 | 0.00 | 0.00 | 75 | 1014.8 |
| 20260906001543 | 62 | 322 | 2.6 | 7.8 | 0.00 | 0.00 | 0.00 | 72 | 1015.2 |
| 20260906000050 | 62 | 168 | 2.6 | 5.2 | 0.00 | 0.00 | 0.00 | 70 | 1015.5 |
| 20260905234546 | 63 | 129 | 0.9 | 6.1 | 0.00 | 0.00 | 0.00 | 71 | 1015.6 |
| 20260905233035 | 63 | 170 | 1.7 | 6.1 | 0.00 | 0.00 | 0.00 | 72 | 1015.9 |
| 20260905231531 | 61 | 143 | 1.7 | 5.2 | 0.00 | 0.00 | 0.00 | 75 | 1016.2 |
| 20260905230033 | 61 | 190 | 3.5 | 7.8 | 0.00 | 0.00 | 0.00 | 72 | 1016.6 |
| 20260905224528 | 62 | 173 | 3.5 | 8.7 | 0.00 | 0.00 | 0.00 | 73 | 1016.9 |
| 20260905223027 | 62 | 86 | 1.7 | 9.6 | 0.00 | 0.00 | 0.00 | 74 | 1017.0 |
| 20260905221525 | 62 | 257 | 1.7 | 6.1 | 0.00 | 0.00 | 0.00 | 76 | 1017.2 |
| 20260905220023 | 61 | 245 | 0.9 | 5.2 | 0.00 | 0.00 | 0.00 | 78 | 1017.2 |